,,Stat6,,Stat2,,Stat8,,Stat9,,Stat10,,Wind1,,Wind1,
time,status,PA1M_AVG,status,PR1M_SUM,status,RH1M_AVG,status,SR1M_AVG,status,TA1M_AVG,status,W1dAve1m,status,W1sAve1m,
2003-11-17, 00:00:00,VALID,918.675,VALID,0,VALID,100,VALID,0.0169808,VALID,20.0244,VALID,16,VALID,1.02242,
2003-11-17, 00:01:00,VALID,918.652,VALID,0,VALID,100,VALID,-0.0169808,VALID,20.0056,VALID,18,VALID,1.02474,
2003-11-17, 00:02:00,VALID,918.645,VALID,0,VALID,100,VALID,-0.0339617,VALID,19.9889,VALID,352,VALID,1.02035,
2003-11-17, 00:03:00,VALID,918.636,VALID,0,VALID,100,VALID,0,VALID,19.9472,VALID,360,VALID,1.10271,
2003-11-17, 00:04:00,VALID,918.631,VALID,0,VALID,100,VALID,-0.0169808,VALID,19.928,VALID,6,VALID,1.11775,
2003-11-17, 00:05:00,VALID,918.628,VALID,0,VALID,100,VALID,-0.0169808,VALID,19.9052,VALID,354,VALID,0.904474,
2003-11-17, 00:06:00,VALID,918.62,VALID,0,VALID,100,VALID,0,VALID,19.8925,VALID,358,VALID,0.719658,
2003-11-17, 00:07:00,VALID,918.612,VALID,0,VALID,100,VALID,0,VALID,19.8958,VALID,8,VALID,0.662946,
2003-11-17, 00:08:00,VALID,918.608,VALID,0,VALID,100,VALID,-0.0169808,VALID,19.896,VALID,3,VALID,0.698552,
2003-11-17, 00:09:00,VALID,918.6,VALID,0,VALID,100,VALID,-0.0339617,VALID,19.9054,VALID,21,VALID,0.680043,
2003-11-17, 00:10:00,VALID,918.597,VALID,0,VALID,100,VALID,-0.0339617,VALID,19.9087,VALID,18,VALID,0.540661,
2003-11-17, 00:11:00,VALID,918.586,VALID,0,VALID,100,VALID,-0.0169808,VALID,19.9283,VALID,16,VALID,0.289063,
2003-11-17, 00:12:00,VALID,918.591,VALID,0,VALID,100,VALID,0,VALID,19.9541,VALID,17,VALID,0.67951,
2003-11-17, 00:13:00,VALID,918.583,VALID,0,VALID,100,VALID,0,VALID,19.9668,VALID,19,VALID,0.724254,
2003-11-17, 00:14:00,VALID,918.577,VALID,0,VALID,100,VALID,0,VALID,19.9504,VALID,18,VALID,0.672602,
2003-11-17, 00:15:00,VALID,918.566,VALID,0,VALID,100,VALID,-0.0339617,VALID,19.9603,VALID,19,VALID,0.339258,
2003-11-17, 00:16:00,VALID,918.561,VALID,0,VALID,100,VALID,-0.0339617,VALID,19.97,VALID,19,VALID,0.22526,
2003-11-17, 00:17:00,VALID,918.56,VALID,0,VALID,100,VALID,-0.0339617,VALID,19.9668,VALID,19,VALID,0,
2003-11-17, 00:18:00,VALID,918.542,VALID,0,VALID,100,VALID,-0.0509425,VALID,19.9827,VALID,18,VALID,0.267223,
2003-11-17, 00:19:00,VALID,918.535,VALID,0,VALID,100,VALID,0,VALID,19.9668,VALID,7,VALID,0.333534,
2003-11-17, 00:20:00,VALID,918.537,VALID,0,VALID,100,VALID,0.0169808,VALID,19.9735,VALID,7,VALID,0.187682,
2003-11-17, 00:21:00,VALID,918.538,VALID,0,VALID,100,VALID,0,VALID,19.9698,VALID,7,VALID,0.0186821,
2003-11-17, 00:22:00,VALID,918.527,VALID,0,VALID,100,VALID,-0.0339617,VALID,19.9859,VALID,8,VALID,0.458841,
2003-11-17, 00:23:00,VALID,918.488,VALID,0,VALID,100,VALID,-0.0339617,VALID,19.9892,VALID,20,VALID,1.0327,
2003-11-17, 00:24:00,VALID,918.468,VALID,0,VALID,100,VALID,-0.0169808,VALID,19.97,VALID,360,VALID,1.44531,
2003-11-17, 00:25:00,VALID,918.468,VALID,0.2,VALID,100,VALID,0,VALID,19.9472,VALID,14,VALID,1.19809,
2003-11-17, 00:26:00,VALID,918.462,VALID,0,VALID,100,VALID,0,VALID,19.9472,VALID,13,VALID,0.904688,
2003-11-17, 00:27:00,VALID,918.465,VALID,0,VALID,100,VALID,0,VALID,19.9666,VALID,359,VALID,0.362909,
2003-11-17, 00:28:00,VALID,918.455,VALID,0,VALID,100,VALID,0,VALID,19.9902,VALID,2,VALID,0.465216,
2003-11-17, 00:29:00,VALID,918.444,VALID,0,VALID,100,VALID,-0.0169808,VALID,19.9765,VALID,353,VALID,0.585574,
2003-11-17, 00:30:00,VALID,918.432,VALID,0,VALID,100,VALID,0,VALID,19.9507,VALID,355,VALID,0.299782,
2003-11-17, 00:31:00,VALID,918.421,VALID,0,VALID,100,VALID,-0.0169808,VALID,19.9574,VALID,352,VALID,0.303354,
2003-11-17, 00:32:00,VALID,918.406,VALID,0,VALID,100,VALID,0,VALID,19.9636,VALID,352,VALID,0.403711,
2003-11-17, 00:33:00,VALID,918.383,VALID,0,VALID,100,VALID,0,VALID,19.9509,VALID,332,VALID,0.783854,
2003-11-17, 00:34:00,VALID,918.377,VALID,0,VALID,100,VALID,-0.0169808,VALID,19.938,VALID,295,VALID,0.46548,
2003-11-17, 00:35:00,VALID,918.355,VALID,0,VALID,100,VALID,0,VALID,19.9251,VALID,280,VALID,0.536519,
2003-11-17, 00:36:00,VALID,918.357,VALID,0,VALID,100,VALID,0,VALID,19.9084,VALID,241,VALID,0.418605,
2003-11-17, 00:37:00,VALID,918.358,VALID,0,VALID,100,VALID,0,VALID,19.9248,VALID,241,VALID,0.1375,
2003-11-17, 00:38:00,VALID,918.347,VALID,0.2,VALID,100,VALID,0,VALID,19.9308,VALID,250,VALID,0.110937,
2003-11-17, 00:39:00,VALID,918.329,VALID,0,VALID,100,VALID,-0.0169808,VALID,19.9631,VALID,354,VALID,0.321948,
2003-11-17, 00:40:00,VALID,918.307,VALID,0,VALID,100,VALID,-0.0169808,VALID,19.9695,VALID,354,VALID,0.398801,
2003-11-17, 00:41:00,VALID,918.308,VALID,0,VALID,100,VALID,-0.0169808,VALID,20.0021,VALID,357,VALID,0.335379,
2003-11-17, 00:42:00,VALID,918.291,VALID,0,VALID,100,VALID,-0.0169808,VALID,20.015,VALID,357,VALID,0.00799419,
2003-11-17, 00:43:00,VALID,918.277,VALID,0,VALID,100,VALID,0,VALID,20.0016,VALID,357,VALID,0.00142045,
2003-11-17, 00:44:00,VALID,918.28,VALID,0,VALID,100,VALID,-0.0169808,VALID,19.9894,VALID,357,VALID,0.000177557,
2003-11-17, 00:45:00,VALID,918.268,VALID,0,VALID,100,VALID,0,VALID,19.9723,VALID,357,VALID,0.138849,
2003-11-17, 00:46:00,VALID,918.271,VALID,0,VALID,100,VALID,0,VALID,19.9954,VALID,357,VALID,0,
2003-11-17, 00:47:00,VALID,918.259,VALID,0,VALID,100,VALID,0,VALID,19.9887,VALID,357,VALID,0.0699728,
2003-11-17, 00:48:00,VALID,918.246,VALID,0,VALID,100,VALID,0,VALID,20.0016,VALID,357,VALID,0.0115234,
2003-11-17, 00:49:00,VALID,918.247,VALID,0,VALID,100,VALID,0.0169808,VALID,20.0185,VALID,357,VALID,0,
2003-11-17, 00:50:00,VALID,918.242,VALID,0,VALID,100,VALID,0,VALID,20.0249,VALID,357,VALID,0,
2003-11-17, 00:51:00,VALID,918.246,VALID,0,VALID,100,VALID,0,VALID,20.0346,VALID,357,VALID,0.119496,
2003-11-17, 00:52:00,VALID,918.255,VALID,0,VALID,100,VALID,0,VALID,20.0334,VALID,357,VALID,0.0772166,
2003-11-17, 00:53:00,VALID,918.258,VALID,0,VALID,100,VALID,-0.0169808,VALID,20.0438,VALID,357,VALID,0,
2003-11-17, 00:54:00,VALID,918.264,VALID,0,VALID,100,VALID,-0.0169808,VALID,20.0312,VALID,357,VALID,0.0100446,
2003-11-17, 00:55:00,VALID,918.261,VALID,0,VALID,100,VALID,0,VALID,20.0247,VALID,357,VALID,0.066311,
2003-11-17, 00:56:00,VALID,918.247,VALID,0.2,VALID,100,VALID,-0.0169808,VALID,20.0346,VALID,8,VALID,0.57641,
2003-11-17, 00:57:00,VALID,918.241,VALID,0,VALID,100,VALID,-0.0849042,VALID,20.0478,VALID,24,VALID,0.753162,
2003-11-17, 00:58:00,VALID,918.224,VALID,0,VALID,100,VALID,-0.0509425,VALID,20.0443,VALID,24,VALID,0.788681,
2003-11-17, 00:59:00,VALID,918.223,VALID,0.2,VALID,100,VALID,-0.0169808,VALID,20.0667,VALID,30,VALID,0.220508,
2003-11-17, 01:00:00,VALID,918.227,VALID,0,VALID,100,VALID,0,VALID,20.0667,VALID,25,VALID,0.251598,
2003-11-17, 01:01:00,VALID,918.21,VALID,0,VALID,100,VALID,-0.0169808,VALID,20.0699,VALID,20,VALID,0.276708,
2003-11-17, 01:02:00,VALID,918.202,VALID,0,VALID,100,VALID,0,VALID,20.0401,VALID,20,VALID,0.17242,
2003-11-17, 01:03:00,VALID,918.197,VALID,0,VALID,100,VALID,-0.0169808,VALID,20.0535,VALID,221,VALID,0.299543,
2003-11-17, 01:04:00,VALID,918.182,VALID,0,VALID,100,VALID,-0.0169808,VALID,20.0371,VALID,197,VALID,0.0897529,
2003-11-17, 01:05:00,VALID,918.159,VALID,0.2,VALID,100,VALID,-0.0339617,VALID,20.0344,VALID,197,VALID,0.0406977,
2003-11-17, 01:06:00,VALID,918.149,VALID,0,VALID,100,VALID,-0.0169808,VALID,20.0301,VALID,197,VALID,0.280342,
2003-11-17, 01:07:00,VALID,918.139,VALID,0,VALID,100,VALID,0,VALID,20.0374,VALID,91,VALID,0.414844,
2003-11-17, 01:08:00,VALID,918.113,VALID,0,VALID,100,VALID,0,VALID,20.0244,VALID,36,VALID,0.584821,
2003-11-17, 01:09:00,VALID,918.104,VALID,0.2,VALID,100,VALID,-0.0509425,VALID,20.0341,VALID,31,VALID,0.644448,
2003-11-17, 01:10:00,VALID,918.101,VALID,0,VALID,100,VALID,0,VALID,20.0505,VALID,30,VALID,0.434304,
2003-11-17, 01:11:00,VALID,918.088,VALID,0.2,VALID,100,VALID,0,VALID,20.0664,VALID,29,VALID,0.170099,
2003-11-17, 01:12:00,VALID,918.098,VALID,0,VALID,100,VALID,0,VALID,20.0602,VALID,29,VALID,0,
2003-11-17, 01:13:00,VALID,918.103,VALID,0,VALID,100,VALID,-0.0339617,VALID,20.0247,VALID,29,VALID,0.0163043,
2003-11-17, 01:14:00,VALID,918.072,VALID,0,VALID,100,VALID,-0.0169808,VALID,19.9924,VALID,34,VALID,0.0948933,
2003-11-17, 01:15:00,VALID,918.063,VALID,0,VALID,100,VALID,-0.0169808,VALID,19.973,VALID,29,VALID,0.561773,
2003-11-17, 01:16:00,VALID,918.067,VALID,0,VALID,100,VALID,-0.0169808,VALID,19.9762,VALID,18,VALID,0.21875,
2003-11-17, 01:17:00,VALID,918.079,VALID,0,VALID,100,VALID,-0.0169808,VALID,19.9598,VALID,18,VALID,0.0980114,
2003-11-17, 01:18:00,VALID,918.078,VALID,0,VALID,100,VALID,0,VALID,19.9574,VALID,18,VALID,0.020419,
2003-11-17, 01:19:00,VALID,918.081,VALID,0,VALID,100,VALID,-0.0169808,VALID,19.934,VALID,350,VALID,0.195508,
2003-11-17, 01:20:00,VALID,918.051,VALID,0,VALID,100,VALID,-0.0339617,VALID,19.9278,VALID,18,VALID,0.917411,
2003-11-17, 01:21:00,VALID,918.069,VALID,0,VALID,100,VALID,-0.135847,VALID,19.9517,VALID,25,VALID,0.387153,
2003-11-17, 01:22:00,VALID,918.067,VALID,0.2,VALID,100,VALID,-0.101885,VALID,19.9718,VALID,25,VALID,0.0881696,
2003-11-17, 01:23:00,VALID,918.054,VALID,0,VALID,100,VALID,-0.118866,VALID,19.9489,VALID,25,VALID,0,
2003-11-17, 01:24:00,VALID,918.04,VALID,0,VALID,100,VALID,-0.135847,VALID,19.946,VALID,25,VALID,0.32066,
2003-11-17, 01:25:00,VALID,918.031,VALID,0,VALID,100,VALID,-0.101885,VALID,19.9616,VALID,24,VALID,0.600836,
2003-11-17, 01:26:00,VALID,918.029,VALID,0,VALID,100,VALID,-0.101885,VALID,19.9681,VALID,24,VALID,0.242006,
2003-11-17, 01:27:00,VALID,918.03,VALID,0,VALID,100,VALID,-0.101885,VALID,19.9678,VALID,24,VALID,0.00266768,
2003-11-17, 01:28:00,VALID,918.009,VALID,0,VALID,100,VALID,-0.118866,VALID,19.9778,VALID,77,VALID,0.203307,
2003-11-17, 01:29:00,VALID,917.994,VALID,0,VALID,100,VALID,-0.101885,VALID,19.977,VALID,96,VALID,0.168445,
2003-11-17, 01:30:00,VALID,918.008,VALID,0.2,VALID,100,VALID,-0.0849042,VALID,20.0038,VALID,96,VALID,0,
2003-11-17, 01:31:00,VALID,917.991,VALID,0.4,VALID,100,VALID,-0.101885,VALID,20.0031,VALID,96,VALID,0,
2003-11-17, 01:32:00,VALID,917.951,VALID,0.2,VALID,100,VALID,-0.101885,VALID,19.9897,VALID,94,VALID,0.155717,
2003-11-17, 01:33:00,VALID,917.898,VALID,0.2,VALID,100,VALID,-0.118866,VALID,19.981,VALID,85,VALID,0.497456,
2003-11-17, 01:34:00,VALID,917.88,VALID,0,VALID,100,VALID,-0.118866,VALID,19.9447,VALID,93,VALID,0.288477,
2003-11-17, 01:35:00,VALID,917.882,VALID,0.2,VALID,100,VALID,-0.101885,VALID,19.9353,VALID,291,VALID,0.388207,
2003-11-17, 01:36:00,VALID,917.883,VALID,0,VALID,100,VALID,0,VALID,19.934,VALID,270,VALID,0.178838,
2003-11-17, 01:37:00,VALID,917.89,VALID,0.4,VALID,100,VALID,0,VALID,19.9402,VALID,270,VALID,0.0970982,
2003-11-17, 01:38:00,VALID,917.87,VALID,0.2,VALID,100,VALID,-0.0169808,VALID,19.9405,VALID,296,VALID,0.109375,
2003-11-17, 01:39:00,VALID,917.845,VALID,0.8,VALID,100,VALID,0,VALID,19.9598,VALID,35,VALID,0.702237,
2003-11-17, 01:40:00,VALID,917.812,VALID,0.6,VALID,100,VALID,0,VALID,19.9593,VALID,29,VALID,1.1356,
2003-11-17, 01:41:00,VALID,917.826,VALID,0.6,VALID,100,VALID,0.0169808,VALID,19.94,VALID,19,VALID,1.254,
2003-11-17, 01:42:00,VALID,917.812,VALID,0.2,VALID,100,VALID,0,VALID,19.934,VALID,25,VALID,1.20889,
2003-11-17, 01:43:00,VALID,917.768,VALID,0.6,VALID,100,VALID,0.0169808,VALID,19.9181,VALID,27,VALID,1.36632,
2003-11-17, 01:44:00,VALID,917.72,VALID,0.6,VALID,100,VALID,-0.0169808,VALID,19.9122,VALID,84,VALID,0.997093,
2003-11-17, 01:45:00,VALID,917.692,VALID,0.2,VALID,100,VALID,0,VALID,19.86,VALID,97,VALID,0.834821,
2003-11-17, 01:46:00,VALID,917.688,VALID,0.2,VALID,100,VALID,0,VALID,19.8476,VALID,87,VALID,0.302484,
2003-11-17, 01:47:00,VALID,917.686,VALID,0,VALID,100,VALID,0,VALID,19.8307,VALID,20,VALID,0.459375,
2003-11-17, 01:48:00,VALID,917.679,VALID,0.2,VALID,100,VALID,0,VALID,19.8374,VALID,11,VALID,0.518787,
2003-11-17, 01:49:00,VALID,917.673,VALID,0,VALID,100,VALID,-0.0169808,VALID,19.8471,VALID,2,VALID,0.628299,
2003-11-17, 01:50:00,VALID,917.674,VALID,0.2,VALID,100,VALID,-0.0169808,VALID,19.8403,VALID,3,VALID,0.775915,
2003-11-17, 01:51:00,VALID,917.677,VALID,0,VALID,100,VALID,0.0169808,VALID,19.8505,VALID,10,VALID,0.970052,
2003-11-17, 01:52:00,VALID,917.648,VALID,0.2,VALID,100,VALID,0,VALID,19.8441,VALID,8,VALID,0.693677,
2003-11-17, 01:53:00,VALID,917.625,VALID,0,VALID,100,VALID,0.0169808,VALID,19.8436,VALID,13,VALID,0.643999,
2003-11-17, 01:54:00,VALID,917.601,VALID,0.2,VALID,100,VALID,0,VALID,19.8535,VALID,16,VALID,0.8125,
2003-11-17, 01:55:00,VALID,917.596,VALID,0,VALID,100,VALID,0,VALID,19.8664,VALID,24,VALID,0.664249,
2003-11-17, 01:56:00,VALID,917.576,VALID,0.2,VALID,100,VALID,0,VALID,19.8565,VALID,359,VALID,0.539971,
2003-11-17, 01:57:00,VALID,917.561,VALID,0.4,VALID,100,VALID,0.0169808,VALID,19.86,VALID,353,VALID,0.578307,
2003-11-17, 01:58:00,VALID,917.519,VALID,0.2,VALID,100,VALID,0.0169808,VALID,19.8336,VALID,311,VALID,0.587573,
2003-11-17, 01:59:00,VALID,917.509,VALID,0.2,VALID,100,VALID,0.0339617,VALID,19.8105,VALID,308,VALID,0.119851,
2003-11-17, 02:00:00,VALID,917.478,VALID,0.2,VALID,100,VALID,0,VALID,19.8244,VALID,332,VALID,0.323219,
2003-11-17, 02:01:00,VALID,917.47,VALID,0.2,VALID,100,VALID,0,VALID,19.8207,VALID,344,VALID,0.12843,
2003-11-17, 02:02:00,VALID,917.455,VALID,0,VALID,100,VALID,0,VALID,19.8148,VALID,344,VALID,0,
2003-11-17, 02:03:00,VALID,917.436,VALID,0.2,VALID,100,VALID,0,VALID,19.7949,VALID,344,VALID,0,
2003-11-17, 02:04:00,VALID,917.428,VALID,0,VALID,100,VALID,0,VALID,19.8078,VALID,344,VALID,0.112695,
2003-11-17, 02:05:00,VALID,917.405,VALID,0.2,VALID,100,VALID,0.0169808,VALID,19.8175,VALID,351,VALID,0.253089,
2003-11-17, 02:06:00,VALID,917.388,VALID,0,VALID,100,VALID,0,VALID,19.8309,VALID,25,VALID,1.06957,
2003-11-17, 02:07:00,VALID,917.365,VALID,0,VALID,100,VALID,0,VALID,19.8406,VALID,27,VALID,1.75852,
2003-11-17, 02:08:00,VALID,917.354,VALID,0,VALID,100,VALID,0,VALID,19.8177,VALID,25,VALID,1.82917,
2003-11-17, 02:09:00,VALID,917.333,VALID,0,VALID,100,VALID,0,VALID,19.7849,VALID,26,VALID,1.45636,
2003-11-17, 02:10:00,VALID,917.338,VALID,0.2,VALID,100,VALID,0.0169808,VALID,19.7986,VALID,14,VALID,1.20257,
2003-11-17, 02:11:00,VALID,917.319,VALID,0,VALID,100,VALID,0,VALID,19.7919,VALID,18,VALID,0.629616,
2003-11-17, 02:12:00,VALID,917.292,VALID,0,VALID,100,VALID,0.0169808,VALID,19.7854,VALID,19,VALID,0.499814,
2003-11-17, 02:13:00,VALID,917.278,VALID,0,VALID,100,VALID,0,VALID,19.7929,VALID,28,VALID,0.524554,
2003-11-17, 02:14:00,VALID,917.257,VALID,0,VALID,100,VALID,-0.0169808,VALID,19.7758,VALID,27,VALID,0.93936,
2003-11-17, 02:15:00,VALID,917.254,VALID,0,VALID,100,VALID,0.0169808,VALID,19.7728,VALID,13,VALID,0.703472,
2003-11-17, 02:16:00,VALID,917.225,VALID,0,VALID,100,VALID,0,VALID,19.783,VALID,15,VALID,0.761513,
2003-11-17, 02:17:00,VALID,917.204,VALID,0,VALID,100,VALID,0,VALID,19.7884,VALID,12,VALID,0.403343,
2003-11-17, 02:18:00,VALID,917.197,VALID,0,VALID,100,VALID,0,VALID,19.7822,VALID,8,VALID,0.048473,
2003-11-17, 02:19:00,VALID,917.18,VALID,0,VALID,100,VALID,0,VALID,19.7852,VALID,8,VALID,0.189808,
2003-11-17, 02:20:00,VALID,917.152,VALID,0,VALID,100,VALID,0.0169808,VALID,19.8083,VALID,14,VALID,0.572359,
2003-11-17, 02:21:00,VALID,917.151,VALID,0,VALID,100,VALID,-0.0849042,VALID,19.7867,VALID,15,VALID,0.697088,
2003-11-17, 02:22:00,VALID,917.155,VALID,0,VALID,100,VALID,-0.101885,VALID,19.7971,VALID,6,VALID,0.881904,
2003-11-17, 02:23:00,VALID,917.139,VALID,0,VALID,100,VALID,-0.101885,VALID,19.7964,VALID,9,VALID,0.59468,
2003-11-17, 02:24:00,VALID,917.135,VALID,0,VALID,100,VALID,-0.101885,VALID,19.7999,VALID,351,VALID,0.260352,
2003-11-17, 02:25:00,VALID,917.116,VALID,0,VALID,100,VALID,-0.0509425,VALID,19.7902,VALID,351,VALID,0,
2003-11-17, 02:26:00,VALID,917.101,VALID,0.2,VALID,100,VALID,-0.101885,VALID,19.7941,VALID,346,VALID,0.227706,
2003-11-17, 02:27:00,VALID,917.098,VALID,0,VALID,100,VALID,-0.101885,VALID,19.7745,VALID,8,VALID,0.59593,
2003-11-17, 02:28:00,VALID,917.071,VALID,0,VALID,100,VALID,-0.101885,VALID,19.7969,VALID,20,VALID,0.601953,
2003-11-17, 02:29:00,VALID,917.055,VALID,0,VALID,100,VALID,-0.101885,VALID,19.8294,VALID,20,VALID,0.819041,
2003-11-17, 02:30:00,VALID,917.044,VALID,0,VALID,100,VALID,-0.118866,VALID,19.8418,VALID,11,VALID,0.603743,
2003-11-17, 02:31:00,VALID,917.015,VALID,0,VALID,100,VALID,-0.101885,VALID,19.8582,VALID,11,VALID,0.465701,
2003-11-17, 02:32:00,VALID,917.007,VALID,0,VALID,100,VALID,-0.118866,VALID,19.8809,VALID,11,VALID,0.206854,
2003-11-17, 02:33:00,VALID,917.002,VALID,0,VALID,100,VALID,-0.101885,VALID,19.8873,VALID,11,VALID,0,
2003-11-17, 02:34:00,VALID,916.98,VALID,0,VALID,100,VALID,-0.118866,VALID,19.8843,VALID,11,VALID,0.0494792,
2003-11-17, 02:35:00,VALID,916.968,VALID,0,VALID,100,VALID,-0.0849042,VALID,19.8543,VALID,11,VALID,0.412861,
2003-11-17, 02:36:00,VALID,916.949,VALID,0,VALID,100,VALID,-0.0169808,VALID,19.8637,VALID,11,VALID,0.597747,
2003-11-17, 02:37:00,VALID,916.934,VALID,0,VALID,100,VALID,-0.0169808,VALID,19.8572,VALID,11,VALID,0.0682664,
2003-11-17, 02:38:00,VALID,916.923,VALID,0,VALID,100,VALID,0,VALID,19.8508,VALID,342,VALID,0.328926,
2003-11-17, 02:39:00,VALID,916.912,VALID,0,VALID,100,VALID,0,VALID,19.8371,VALID,320,VALID,0.0180432,
2003-11-17, 02:40:00,VALID,916.904,VALID,0,VALID,100,VALID,0,VALID,19.8344,VALID,313,VALID,0.200284,
2003-11-17, 02:41:00,VALID,916.883,VALID,0,VALID,100,VALID,0,VALID,19.8172,VALID,313,VALID,0.00669643,
2003-11-17, 02:42:00,VALID,916.87,VALID,0,VALID,100,VALID,0,VALID,19.8138,VALID,343,VALID,0.32649,
2003-11-17, 02:43:00,VALID,916.854,VALID,0,VALID,100,VALID,0.0169808,VALID,19.8215,VALID,21,VALID,0.58939,
2003-11-17, 02:44:00,VALID,916.845,VALID,0,VALID,100,VALID,0,VALID,19.8374,VALID,19,VALID,0.842115,
2003-11-17, 02:45:00,VALID,916.835,VALID,0,VALID,100,VALID,0,VALID,19.8307,VALID,5,VALID,0.617188,
2003-11-17, 02:46:00,VALID,916.819,VALID,0,VALID,100,VALID,0,VALID,19.8376,VALID,7,VALID,0.771577,
2003-11-17, 02:47:00,VALID,916.793,VALID,0,VALID,100,VALID,0,VALID,19.8312,VALID,12,VALID,0.657031,
2003-11-17, 02:48:00,VALID,916.795,VALID,0,VALID,100,VALID,0,VALID,19.8277,VALID,20,VALID,0.722747,
2003-11-17, 02:49:00,VALID,916.758,VALID,0,VALID,100,VALID,0.0339617,VALID,19.8274,VALID,22,VALID,0.674851,
2003-11-17, 02:50:00,VALID,916.752,VALID,0,VALID,100,VALID,0,VALID,19.8304,VALID,16,VALID,0.926398,
2003-11-17, 02:51:00,VALID,916.748,VALID,0,VALID,100,VALID,-0.0169808,VALID,19.8408,VALID,12,VALID,0.564931,
2003-11-17, 02:52:00,VALID,916.739,VALID,0,VALID,100,VALID,0.0339617,VALID,19.8309,VALID,12,VALID,0.674237,
2003-11-17, 02:53:00,VALID,916.718,VALID,0,VALID,100,VALID,0,VALID,19.8118,VALID,12,VALID,0.619093,
2003-11-17, 02:54:00,VALID,916.709,VALID,0,VALID,100,VALID,0,VALID,19.8083,VALID,12,VALID,0.736506,
2003-11-17, 02:55:00,VALID,916.666,VALID,0,VALID,100,VALID,0.0169808,VALID,19.8018,VALID,16,VALID,1.03906,
2003-11-17, 02:56:00,VALID,916.632,VALID,0,VALID,100,VALID,0.0509425,VALID,19.815,VALID,34,VALID,1.28871,
2003-11-17, 02:57:00,VALID,916.63,VALID,0,VALID,100,VALID,0.0169808,VALID,19.8217,VALID,22,VALID,1.19627,
2003-11-17, 02:58:00,VALID,916.624,VALID,0,VALID,100,VALID,0,VALID,19.8314,VALID,19,VALID,1.03977,
2003-11-17, 02:59:00,VALID,916.618,VALID,0,VALID,100,VALID,0,VALID,19.8336,VALID,8,VALID,0.930889,
2003-11-17, 03:00:00,VALID,916.595,VALID,0,VALID,100,VALID,0,VALID,19.8247,VALID,353,VALID,0.615699,
2003-11-17, 03:01:00,VALID,916.583,VALID,0,VALID,100,VALID,0,VALID,19.8053,VALID,342,VALID,0.657812,
2003-11-17, 03:02:00,VALID,916.564,VALID,0,VALID,100,VALID,0,VALID,19.8085,VALID,4,VALID,0.997024,
2003-11-17, 03:03:00,VALID,916.536,VALID,0,VALID,100,VALID,-0.0169808,VALID,19.8058,VALID,13,VALID,1.13754,
2003-11-17, 03:04:00,VALID,916.53,VALID,0,VALID,100,VALID,0,VALID,19.8046,VALID,3,VALID,0.878089,
2003-11-17, 03:05:00,VALID,916.503,VALID,0,VALID,100,VALID,0.0169808,VALID,19.8113,VALID,20,VALID,0.888715,
2003-11-17, 03:06:00,VALID,916.491,VALID,0,VALID,100,VALID,0,VALID,19.8215,VALID,19,VALID,0.844866,
2003-11-17, 03:07:00,VALID,916.473,VALID,0,VALID,100,VALID,0,VALID,19.8244,VALID,4,VALID,1.15149,
2003-11-17, 03:08:00,VALID,916.427,VALID,0,VALID,100,VALID,-0.0169808,VALID,19.8344,VALID,5,VALID,1.03125,
2003-11-17, 03:09:00,VALID,916.42,VALID,0,VALID,100,VALID,0.0169808,VALID,19.8185,VALID,15,VALID,1.48549,
2003-11-17, 03:10:00,VALID,916.407,VALID,0,VALID,100,VALID,0,VALID,19.8145,VALID,11,VALID,0.848544,
2003-11-17, 03:11:00,VALID,916.396,VALID,0,VALID,100,VALID,0,VALID,19.8215,VALID,358,VALID,0.804501,
2003-11-17, 03:12:00,VALID,916.375,VALID,0,VALID,100,VALID,-0.0169808,VALID,19.8118,VALID,345,VALID,0.462573,
2003-11-17, 03:13:00,VALID,916.348,VALID,0,VALID,100,VALID,0,VALID,19.7991,VALID,339,VALID,0.43045,
2003-11-17, 03:14:00,VALID,916.331,VALID,0,VALID,100,VALID,-0.0169808,VALID,19.8056,VALID,2,VALID,0.580929,
2003-11-17, 03:15:00,VALID,916.3,VALID,0,VALID,100,VALID,-0.0169808,VALID,19.8021,VALID,10,VALID,0.972561,
2003-11-17, 03:16:00,VALID,916.284,VALID,0,VALID,100,VALID,0.0169808,VALID,19.7984,VALID,13,VALID,1.4127,
2003-11-17, 03:17:00,VALID,916.266,VALID,0,VALID,100,VALID,-0.0169808,VALID,19.8185,VALID,350,VALID,1.36014,
2003-11-17, 03:18:00,VALID,916.258,VALID,0,VALID,100,VALID,-0.0169808,VALID,19.7854,VALID,356,VALID,0.951563,
2003-11-17, 03:19:00,VALID,916.261,VALID,0,VALID,100,VALID,0,VALID,19.7859,VALID,13,VALID,1.39773,
2003-11-17, 03:20:00,VALID,916.266,VALID,0,VALID,100,VALID,0,VALID,19.7825,VALID,13,VALID,1.00052,
2003-11-17, 03:21:00,VALID,916.257,VALID,0,VALID,100,VALID,0,VALID,19.7797,VALID,18,VALID,0.963778,
2003-11-17, 03:22:00,VALID,916.263,VALID,0,VALID,100,VALID,-0.0169808,VALID,19.7765,VALID,14,VALID,1.08448,
2003-11-17, 03:23:00,VALID,916.26,VALID,0,VALID,100,VALID,0,VALID,19.7666,VALID,19,VALID,0.926781,
2003-11-17, 03:24:00,VALID,916.261,VALID,0,VALID,100,VALID,-0.0169808,VALID,19.7502,VALID,341,VALID,0.819169,
2003-11-17, 03:25:00,VALID,916.27,VALID,0,VALID,100,VALID,0,VALID,19.7377,VALID,359,VALID,0.849019,
2003-11-17, 03:26:00,VALID,916.28,VALID,0,VALID,100,VALID,0,VALID,19.7442,VALID,23,VALID,0.80008,
2003-11-17, 03:27:00,VALID,916.291,VALID,0,VALID,100,VALID,0,VALID,19.7574,VALID,16,VALID,0.79154,
2003-11-17, 03:28:00,VALID,916.302,VALID,0,VALID,100,VALID,0.0169808,VALID,19.7477,VALID,9,VALID,0.638021,
2003-11-17, 03:29:00,VALID,916.312,VALID,0,VALID,100,VALID,0,VALID,19.7539,VALID,360,VALID,0.550509,
2003-11-17, 03:30:00,VALID,916.301,VALID,0,VALID,100,VALID,0,VALID,19.7444,VALID,360,VALID,0.933685,
2003-11-17, 03:31:00,VALID,916.306,VALID,0,VALID,100,VALID,0,VALID,19.7536,VALID,4,VALID,0.833452,
2003-11-17, 03:32:00,VALID,916.316,VALID,0,VALID,100,VALID,0,VALID,19.7571,VALID,6,VALID,0.772347,
2003-11-17, 03:33:00,VALID,916.319,VALID,0,VALID,100,VALID,0,VALID,19.7641,VALID,358,VALID,0.498047,
2003-11-17, 03:34:00,VALID,916.321,VALID,0,VALID,100,VALID,0,VALID,19.7728,VALID,2,VALID,0.523082,
2003-11-17, 03:35:00,VALID,916.326,VALID,0,VALID,100,VALID,0,VALID,19.7989,VALID,358,VALID,0.925327,
2003-11-17, 03:36:00,VALID,916.322,VALID,0,VALID,100,VALID,-0.0339617,VALID,19.7797,VALID,352,VALID,0.73473,
2003-11-17, 03:37:00,VALID,916.303,VALID,0,VALID,100,VALID,-0.0339617,VALID,19.783,VALID,22,VALID,0.864139,
2003-11-17, 03:38:00,VALID,916.305,VALID,0,VALID,100,VALID,-0.0339617,VALID,19.7991,VALID,22,VALID,0.943266,
2003-11-17, 03:39:00,VALID,916.306,VALID,0,VALID,100,VALID,-0.0169808,VALID,19.8254,VALID,17,VALID,0.500355,
2003-11-17, 03:40:00,VALID,916.318,VALID,0,VALID,100,VALID,-0.0169808,VALID,19.8314,VALID,10,VALID,0.125586,
2003-11-17, 03:41:00,VALID,916.308,VALID,0,VALID,100,VALID,0,VALID,19.8413,VALID,10,VALID,0.046131,
2003-11-17, 03:42:00,VALID,916.297,VALID,0,VALID,100,VALID,-0.0169808,VALID,19.861,VALID,10,VALID,0,
2003-11-17, 03:43:00,VALID,916.282,VALID,0,VALID,100,VALID,-0.0339617,VALID,19.8605,VALID,10,VALID,0,
2003-11-17, 03:44:00,VALID,916.274,VALID,0,VALID,100,VALID,-0.0169808,VALID,19.8667,VALID,10,VALID,0,
2003-11-17, 03:45:00,VALID,916.268,VALID,0,VALID,100,VALID,0,VALID,19.8607,VALID,10,VALID,0.430414,
2003-11-17, 03:46:00,VALID,916.251,VALID,0,VALID,100,VALID,0,VALID,19.8605,VALID,10,VALID,0.611151,
2003-11-17, 03:47:00,VALID,916.249,VALID,0,VALID,100,VALID,0,VALID,19.8471,VALID,11,VALID,0.480945,